Location: ??????????????
(41.9239°N, 44.3323°E)
Time: 06:44:52
(UTC+00:00)

Daily predictions for brighter satellites

Satellite Brightness Start Highest point End
(mag) Time Altitude Azimuth Time Altitude Azimuth Time Altitude Azimuth
Cosmos 1842 3.9 17:05:42 10° SSE 17:09:19 37° E 17:12:58 10° NNE
Cosmos 2322 Rocket 3.6 17:08:11 10° SE 17:11:56 18° E 17:15:40 10° ENE
Cosmos 2151 Rocket 3.9 17:08:37 10° N 17:12:55 50° E 17:17:10 10° SSE
Cosmos 2278 3.7 17:08:10 10° SSW 17:13:51 77° ESE 17:19:33 10° NNE
Cosmos 1766 3.3 17:10:34 10° N 17:14:25 67° E 17:18:14 10° SSE
Cosmos 2056 Rocket 3.7 17:09:41 10° S 17:14:40 51° ESE 17:19:46 10° NNE
SJ-6B 3.8 17:12:00 10° S 17:16:00 51° W 17:20:00 10° NNW
NOSS 3-2 (C) 3.6 17:14:06 10° S 17:19:11 41° ESE 17:24:55 10° NE
NOSS 3-2 (A) 3.2 17:14:29 10° SSW 17:19:55 75° ESE 17:26:11 10° NE
Cosmos 1315 Rocket 4.2 17:21:26 10° NNE 17:24:54 25° ENE 17:28:16 10° SE
Cosmos 407 Rocket 3.6 17:20:31 10° NNW 17:25:52 82° ENE 17:31:07 10° SSE
Cosmos 1470 3.8 17:22:31 10° NNE 17:26:04 30° ENE 17:29:29 11° SE
SL-24 DEB 4.3 17:22:26 10° S 17:27:08 89° E 17:31:55 10° N
CZ-2C R/B 4.4 17:23:25 10° NNE 17:27:50 37° E 17:32:14 10° SSE
Okean 2 3.8 17:26:07 10° SSE 17:29:58 42° E 17:33:51 10° NNE
Meteor 1-22 Rocket 4.3 17:24:12 10° N 17:30:10 73° E 17:35:52 10° SSE
Cosmos 1371 Rocket 4.0 17:26:02 10° SSW 17:31:12 82° ESE 17:36:24 10° NNE
Cosmos 1980 Rocket 2.7 17:25:42 10° SSW 17:31:18 66° WNW 17:36:55 10° NNE
OBJECT-B 3.1 17:29:31 10° SSW 17:32:07 22° W 17:34:44 10° NW
ERS-2 3.9 17:30:19 10° N 17:33:40 35° WNW 17:36:59 10° SW
Genesis I 3.9 17:30:43 10° S 17:34:07 31° ESE 17:37:35 10° NE
Cosmos 1420 Rocket 4.2 17:30:39 10° S 17:35:37 50° ESE 17:40:39 10° NNE
Cosmos 1190 Rocket 4.1 17:30:30 10° NNW 17:35:48 74° ENE 17:41:00 10° SSE
SPOT 3 Rocket 3.6 17:32:14 10° SSE 17:37:20 68° ENE 17:42:30 10° N
Cosmos 1934 Rocket 4.0 17:32:34 10° N 17:38:42 89° W 17:44:51 10° S
SPOT 5 4.4 17:37:08 10° ESE 17:41:06 24° ENE 17:45:05 10° NNE
Cosmos 1758 4.4 17:38:23 10° NNE 17:41:53 29° ENE 17:44:34 14° SE
Cosmos 1674 Rocket 3.5 17:38:46 10° S 17:43:11 88° E 17:47:36 10° N
ARIANE 5 R/B 3.8 17:42:16 13° SE 17:45:32 30° ENE 17:49:25 10° N
ERS-1 Rocket 4.2 17:44:56 12° ESE 17:48:36 27° ENE 17:52:49 10° N
IGS 5A 3.6 17:46:27 10° S 17:50:35 78° WSW 17:54:46 10° NNW
Cosmos 1674 4.3 17:50:33 15° ESE 17:51:58 18° E 17:54:36 10° NE
Aureole 2 Rocket 3.8 17:50:29 10° NW 17:52:25 21° WSW 17:54:18 10° SSW
Cosmos 1844 Rocket 4.5 17:49:22 10° N 17:53:28 20° NE 17:57:32 10° E
USA 238 DEB 3.7 17:47:43 10° SW 17:54:15 87° NW 18:01:07 10° NE
USA 238 3.7 17:47:50 10° SW 17:54:21 88° NW 18:01:13 10° NE
Cosmos 292 Rocket 4.0 17:50:51 10° S 17:55:32 52° ESE 18:00:14 10° NNE
USA 215 3.9 17:50:09 10° ENE 17:55:54 32° SE 18:01:36 10° S
Cosmos 1727 Rocket 4.3 17:50:11 10° SSE 17:56:16 52° E 18:02:20 10° NNE
Lacrosse 5 2.6 17:52:03 10° NW 17:56:55 45° NE 18:01:10 13° ESE
Cosmos 2285 Rocket 4.0 17:56:05 10° SSW 18:02:30 79° ESE 18:08:57 10° NNE
Terra 3.2 18:00:48 15° ESE 18:03:40 25° ENE 18:07:32 10° NNE
Cosmos 1605 Rocket 4.1 17:58:55 10° N 18:05:21 88° W 18:11:27 11° S
Cosmos 2263 Rocket 2.3 18:00:17 10° NNW 18:06:00 83° WSW 18:10:30 17° SSE
Cosmos 676 Rocket 4.0 18:02:33 10° NNW 18:07:55 85° ENE 18:11:55 18° SSE
USA 81 4.1 18:03:24 10° N 18:08:39 65° E 18:12:35 18° SSE
Cosmos 1954 Rocket 4.0 18:05:11 10° NNW 18:10:33 88° WSW 18:14:30 18° SSE
Cosmos 2333 Rocket 3.9 18:10:50 14° ESE 18:11:43 14° E 18:14:40 10° ENE
Cosmos 1953 3.5 18:08:16 10° NNE 18:11:48 28° ENE 18:13:30 21° ESE
Meteor 2-10 4.4 18:07:29 10° NNW 18:12:26 60° W 18:17:18 11° S
CENTAUR R/B 2.8 18:07:56 10° SW 18:13:42 70° NW 18:20:39 10° NNE
Cosmos 1707 2.7 18:10:35 11° S 18:14:12 85° W 18:18:07 10° N
In-Cosmos 22 4.0 18:14:02 13° S 18:18:39 68° E 18:23:54 10° NNE
Okean 1 Rocket 3.4 18:14:23 10° NNW 18:18:42 65° W 18:22:08 16° S
Meteor 2-20 Rocket 4.4 18:13:15 12° S 18:18:59 71° E 18:25:04 10° NNE
Cosmos 1726 2.6 18:17:31 10° NNW 18:21:05 55° W 18:23:36 18° SSW
Cosmos 1455 Rocket 3.6 18:19:48 10° N 18:24:04 43° ENE 18:26:05 26° SE
ATLAS CENTAUR R/B 4.1 18:24:58 10° NNE 18:26:32 12° NE 18:28:08 10° ENE
Cosmos 1110 Rocket 4.4 18:30:03 25° SSE 18:32:28 41° ESE 18:37:19 10° NE
Cosmos 2219 Rocket 3.6 18:34:57 19° ESE 18:35:39 20° E 18:39:35 10° NE
Cosmos 1459 Rocket 4.0 18:34:06 10° N 18:40:06 62° E 18:43:25 27° SSE
H-2A R/B 3.8 18:38:09 10° NNE 18:42:04 43° E 18:43:02 36° SE
Cosmos 1000 Rocket 4.4 18:38:06 22° S 18:42:14 69° E 18:48:20 10° NNE
Resurs 01 Rocket 3.8 18:40:26 10° SW 18:43:41 20° W 18:46:58 10° NW
BREEZE-M DEB (TANK) 3.0 18:42:09 10° WSW 18:44:35 60° NNW 18:49:37 10° ENE
NOSS 8 (A) 4.5 18:41:50 10° SW 18:45:23 69° NW 18:48:21 10° NNE
SL-16 R/B 2.9 18:45:31 10° SW 18:51:03 54° WNW 18:56:37 10° NNE
Cosmos 1452 Rocket 3.9 18:46:19 10° SSW 18:51:33 65° WNW 18:56:49 10° NNE
Cosmos 2322 Rocket 2.6 18:49:43 10° SW 18:55:22 64° WNW 19:01:04 10° NNE
Cosmos 2360 Rocket 2.1 18:51:21 18° SSW 18:55:33 76° ESE 19:01:12 10° NNE
KORONAS-FOTON 4.1 18:55:53 29° SSW 18:57:39 62° W 19:01:26 10° N
Meteor 1-16 Rocket 4.1 18:54:00 10° NNW 18:59:31 83° W 19:02:07 32° S
CZ-4B DEB 4.0 19:01:25 76° SE 19:01:36 80° ENE 19:04:47 10° N
Cosmos 2123 Rocket 4.1 18:59:00 30° SSE 19:02:04 61° E 19:08:16 10° NNE
Cosmos 405 4.1 18:59:38 10° NNE 19:02:42 29° ENE 19:02:44 29° ENE
COSMOS 2428 3.7 19:02:07 26° ESE 19:02:45 27° ESE 19:07:29 10° NE
Cosmos 1850 Rocket 4.0 18:59:19 10° NNW 19:04:38 79° WSW 19:06:48 37° S
Cosmos 1626 1.9 19:04:08 57° S 19:04:49 84° E 19:08:32 10° N
BREEZE-M DEB (TANK) 1.7 19:02:28 10° WSW 19:04:53 79° NNW 19:09:34 10° ENE
Cosmos 2322 4.1 19:06:37 36° SE 19:08:06 43° ESE 19:13:25 10° NE
Cosmos 2237 4.4 19:02:53 10° SSW 19:08:34 70° WNW 19:14:16 10° NNE
Cosmos 1025 Rocket 3.0 19:07:38 39° SSW 19:09:14 85° W 19:13:38 10° N
Cosmos 1975 Rocket 4.1 19:08:07 18° SW 19:11:01 41° WNW 19:15:11 10° N
Meteor 2-11 Rocket 4.4 19:05:45 10° N 19:11:54 84° W 19:14:49 33° S
Meteor 2-5 Rocket 4.0 19:11:26 37° SE 19:13:05 49° E 19:18:25 10° NNE
Cosmos 2100 Rocket 4.3 19:07:31 10° NNW 19:13:51 67° W 19:17:22 27° SSW
Cosmos 2233 Rocket 4.5 19:11:49 10° N 19:17:43 46° ENE 19:19:57 33° SE
SPOT 5 3.8 19:16:21 26° SSW 19:18:54 44° W 19:23:45 10° NNW
Cosmos 2278 Rocket 4.3 19:16:17 10° N 19:19:59 17° NE 19:23:40 10° E
ATLAS 3B R/B 2.6 19:18:42 32° S 19:21:37 57° ESE 19:28:09 10° NE
ARIANE 5 R/B 4.3 19:19:49 18° SW 19:21:57 26° W 19:25:41 10° NW
Cosmos 1331 Rocket 4.1 19:19:17 27° SSW 19:22:12 78° WNW 19:27:30 10° NNE
Cosmos 2228 4.4 19:18:47 10° NNE 19:22:27 25° ENE 19:23:02 24° E
Cosmos 1346 Rocket 4.4 19:24:19 23° ENE 19:24:19 23° ENE 19:27:02 10° NE
ERS-1 Rocket 4.1 19:24:55 24° SW 19:27:13 36° W 19:31:52 10° NNW
SL-08 R/B 4.5 19:24:19 10° N 19:30:45 88° ENE 19:33:17 40° S
Lacrosse 5 rocket 1.4 19:32:30 54° ENE 19:32:30 54° ENE 19:35:21 10° NE
Cosmos 1300 2.6 19:29:07 10° N 19:32:56 70° E 19:32:58 70° E
Cosmos 1844 Rocket 2.7 19:32:16 10° NNW 19:37:55 71° WSW 19:39:37 45° S
Cosmos 1302 Rocket 3.9 19:37:11 49° S 19:38:34 75° ESE 19:43:50 10° NNE
USA 215 3.4 19:32:42 10° NE 19:39:14 74° NW 19:45:44 10° WSW
Cosmos 2016 Rocket 4.1 19:33:13 10° NNW 19:39:17 68° W 19:41:45 37° SSW
Lacrosse 5 2.7 19:35:14 10° WNW 19:39:47 34° SW 19:40:21 33° SW
Terra 2.9 19:39:41 28° SW 19:41:13 35° W 19:45:36 10° NNW
FALCON 9 DEB 4.1 19:40:47 21° W 19:42:47 47° NNW 19:46:06 10° NE
Cosmos 1461 2.7 19:40:15 10° NW 19:44:27 73° WSW 19:44:29 73° SW
Cosmos 2333 4.3 19:43:57 31° SSW 19:46:52 76° WNW 19:52:38 10° NNE
Cosmos 1953 4.3 19:44:55 10° NW 19:47:59 21° W 19:49:11 18° WSW
Cosmos 1725 Rocket 4.1 19:42:58 10° NNW 19:49:05 66° W 19:51:25 39° SSW
ALOS 2 3.6 19:52:42 32° E 19:53:15 33° ENE 19:57:11 10° N
Cosmos 2333 Rocket 2.2 19:52:47 36° SSW 19:55:13 80° WNW 20:00:59 10° NNE
Cosmos 1340 3.8 19:56:32 33° W 19:57:08 35° WNW 20:00:37 10° N
Cosmos 1892 Rocket 4.5 20:00:40 36° E 20:00:40 36° E 20:04:28 10° NNE
Cosmos 1606 Rocket 3.9 19:57:15 10° N 20:01:40 54° E 20:01:51 53° E
Cosmos 389 Rocket 3.5 19:59:56 10° N 20:02:29 39° NE 20:02:29 39° NE
GEOS 3 Rocket 3.7 20:03:17 55° S 20:04:19 69° SW 20:09:41 10° NW
ATLAS CENTAUR R/B 1.6 20:01:47 10° NNW 20:06:09 68° NE 20:06:32 64° E
Meteor 1-24 Rocket 3.8 20:08:24 45° SW 20:09:54 65° WNW 20:15:17 10° N
Cosmos 1486 Rocket 4.3 20:05:19 10° NNW 20:10:28 58° ENE 20:11:28 49° ESE
USA 267 3.4 20:07:41 27° ESE 20:11:26 71° NE 20:17:57 10° NW
Cosmos 1844 4.3 20:09:36 10° NW 20:14:48 42° WSW 20:15:46 38° SW
Cosmos 2219 Rocket 2.6 20:16:37 33° SW 20:19:03 60° WNW 20:24:42 10° NNE
Spot 4 3.7 20:18:53 68° SW 20:19:20 74° WSW 20:24:08 10° NNW
SL-16 R/B 4.1 20:24:36 15° E 20:24:36 15° E 20:27:38 10° ENE
DNEPR-1 R/B 3.6 20:21:43 10° NW 20:25:39 68° W 20:25:39 68° W
Uosat 12 SS-18 rocket 4.2 20:27:35 67° W 20:28:01 73° NW 20:32:54 10° NNE
COBE Rocket 3.8 20:27:55 70° S 20:28:33 86° W 20:33:35 10° NNW
Cosmos 1992 Rocket 3.8 20:29:28 69° SSW 20:30:08 88° ESE 20:35:24 10° NNE
Cosmos 2237 Rocket 2.4 20:30:21 50° ESE 20:30:42 51° ESE 20:36:09 10° NE
Cosmos 968 Rocket 3.4 20:28:13 10° NNW 20:33:18 67° WSW 20:33:42 64° SW
Meteor 2-10 Rocket 4.0 20:39:33 10° NNW 20:44:24 44° W 20:44:53 43° WSW
SL-8 R/B 3.8 20:40:05 10° WNW 20:44:13 62° W 20:44:13 62° W
Okean 1-7 Rocket 3.7 20:45:58 64° E 20:45:58 64° E 20:50:13 10° NNE
COSMOS 2428 3.6 20:44:06 28° WSW 20:46:44 45° WNW 20:52:16 10° NNE
SAR-Lupe-2 4.4 20:54:14 10° N 20:57:01 49° NNW 20:57:01 49° NNW
Cosmos 2228 4.5 20:56:11 10° NNW 20:59:52 28° W 20:59:52 28° W
Cosmos 1455 3.2 20:58:39 10° NNW 21:01:34 41° NW 21:01:34 41° NW
Cosmos 2278 Rocket 2.0 20:59:05 10° NNW 21:04:47 82° WSW 21:05:36 66° S
SL-4 R/B 3.6 21:09:25 24° ENE 21:09:25 24° ENE 21:10:59 10° ENE
USA 32 4.4 21:02:48 10° N 21:07:58 54° E 21:08:46 49° ESE
Cosmos 1503 Rocket 3.9 21:03:49 10° NNW 21:09:12 75° WSW 21:09:42 69° SSW
BREEZE-M DEB (TANK) 3.2 21:02:13 10° WSW 21:09:36 55° NNW 21:12:22 10° NE
Cosmos 2058 Rocket 3.4 21:06:11 10° NNW 21:10:19 56° W 21:10:19 56° W
Lacrosse 5 rocket 3.8 21:08:49 10° WNW 21:11:14 17° NNW 21:13:38 10° NNE
ATLAS 3B R/B 4.1 21:06:47 10° WSW 21:12:38 33° NW 21:18:42 10° NNE
Cosmos 1867 3.5 21:08:08 10° NW 21:13:36 67° WSW 21:13:54 65° SW
GP-B 3.2 21:12:03 10° N 21:16:24 65° E 21:16:24 65° E
Cosmos 1812 Rocket 4.2 21:12:42 10° N 21:16:52 44° ENE 21:17:02 44° E
ATLAS CENTAUR R/B 3.1 21:16:07 52° SW 21:17:44 86° SE 21:30:21 10° NE
Thor Agena Rocket 3.5 21:12:52 10° N 21:18:08 76° WNW 21:18:54 63° SW
Meteor 2-1 Rocket 4.2 21:13:50 10° NNW 21:19:15 62° W 21:19:57 57° SW
ALOS 2 4.3 21:30:05 22° W 21:30:05 22° W 21:33:05 10° NW
Meteor 1-4 Rocket 3.5 21:30:24 10° N 21:32:52 43° NNW 21:32:52 43° NNW
Cosmos 1328 4.5 21:38:23 45° NW 21:38:23 45° NW 21:41:41 10° N
ATLAS CENTAUR R/B 4.0 21:42:18 10° W 21:42:39 11° W 21:42:39 11° W
Cosmos 1825 Rocket 4.1 21:45:06 47° ESE 21:45:21 48° E 21:49:39 10° NNE
Cosmos 1408 4.1 21:47:01 29° E 21:47:01 29° E 21:49:53 10° NNE
SL-24 R/B 4.3 21:47:51 67° SSW 21:48:24 75° WSW 21:53:57 10° NNW
PSLV R/B 4.1 21:45:36 10° N 21:49:43 48° WNW 21:49:55 47° W
SJ 16-02 1.9 21:46:34 10° N 21:50:52 51° ENE 21:51:36 46° ESE
NOSS 2-3 (D) 4.5 21:51:24 35° E 21:51:24 35° E 21:55:03 10° NE
USA 267 3.9 21:54:59 34° WSW 21:54:59 34° WSW 22:00:34 10° WNW
Cosmos 1634 Rocket 3.9 21:48:25 10° N 21:54:46 90° E 21:56:43 48° S
Cosmos 1892 3.3 21:55:04 48° E 21:55:04 48° E 21:58:36 10° NNE
Cosmos 1943 Rocket 2.7 21:53:26 10° NNW 21:58:50 53° ENE 22:01:47 26° SE
Cosmos 2279 Rocket 4.3 21:53:07 10° N 21:59:19 62° E 22:01:55 35° SSE
Cosmos 1777 Rocket 4.0 21:58:13 10° NNW 22:03:26 60° WSW 22:03:59 57° SW
Aureole 3 3.4 22:00:08 10° NNW 22:03:17 65° NW 22:03:17 65° NW
Cosmos 1953 Rocket 3.9 22:06:22 49° ESE 22:06:48 52° E 22:11:04 10° NNE
SL-16 R/B 2.2 22:06:27 51° SW 22:07:54 75° WNW 22:13:37 10° NNE
NOSS 2-3 (C) 3.6 22:08:10 59° ESE 22:08:10 59° ESE 22:12:37 10° NE
Cosmos 1607 4.3 22:06:59 10° NW 22:12:59 44° WSW 22:13:43 42° SW
Cosmos 2237 Rocket 3.8 22:12:09 17° W 22:15:03 25° NW 22:19:40 10° N
Cosmos 405 Rocket 3.2 22:19:52 47° E 22:19:53 47° E 22:23:27 10° NNE
MOZ.5/SAFIR/RUBIN 5/SL-8 3.7 22:19:05 53° SSE 22:20:12 82° ENE 22:24:58 10° N
Cosmos 1758 Rocket 4.1 22:22:44 42° W 22:23:07 44° WNW 22:27:23 10° N
Resurs 1-4 Rocket 2.5 22:18:52 10° NNE 22:24:06 56° E 22:25:49 39° SSE
CZ-2D R/B 2.4 22:20:17 10° NNE 22:25:25 55° E 22:27:04 39° SSE
Transit 2A Rocket 4.5 22:27:01 60° SSE 22:27:23 64° ESE 22:31:43 10° NE
SL-16 R/B 2.9 22:23:30 21° SE 22:27:40 61° ENE 22:33:45 10° N
Cosmos 2369 Rocket 3.0 22:23:56 10° NNW 22:29:30 50° ENE 22:35:00 10° SE
Meteor 1-27 4.3 22:24:37 10° NNW 22:30:06 60° W 22:31:29 46° SSW
Exosat Rocket 4.1 22:27:19 37° S 22:30:18 73° ESE 22:35:55 10° NNE
CZ-4 R/B 4.1 22:28:14 10° N 22:32:46 53° WNW 22:33:43 45° WSW
Nadezhda 4 Rocket 4.3 22:30:52 31° SSE 22:33:45 61° E 22:39:46 10° NNE
Cosmos 2058 3.3 22:34:23 45° SE 22:35:09 53° E 22:39:09 10° NNE
YAOGAN 11 4.4 22:35:50 46° WSW 22:35:58 46° W 22:40:16 10° NNW
Cosmos 1898 Rocket 4.2 22:30:54 10° N 22:36:01 51° ENE 22:40:04 16° SE
Cosmos 1825 2.1 22:36:08 70° SE 22:36:22 74° E 22:40:09 10° NNE
Helios 1A 3.3 22:38:22 47° W 22:38:22 47° W 22:42:25 10° NNW
Cosmos 990 Rocket 4.2 22:34:15 10° NNW 22:39:27 68° ENE 22:42:28 25° SSE
USA 229 DEB 3.5 22:38:33 39° SSW 22:41:09 83° SE 22:47:57 10° NE
USA 229 3.5 22:38:37 39° SSW 22:41:13 82° ESE 22:48:00 10° NE
Cosmos 2297 3.9 22:38:36 10° NNW 22:44:03 52° WSW 22:45:29 41° SSW
ADEOS II 3.0 22:41:06 10° NNE 22:46:02 40° E 22:48:44 23° SSE
Cosmos 1869 3.7 22:42:58 10° NNW 22:46:54 45° W 22:47:01 45° W
SL-4 R/B 3.5 22:44:56 17° WNW 22:47:03 28° NNW 22:50:12 10° NE
Cosmos 2278 Rocket 4.4 22:47:07 10° W 22:47:25 10° W 22:47:25 10° W
Cosmos 540 Rocket 3.9 22:48:47 33° SSE 22:50:46 52° ESE 22:55:43 10° NNE
SL-19 R/B 4.4 22:45:57 10° NNE 22:51:08 60° ESE 22:53:35 31° S
NOSS 3-1 (C) 3.7 22:50:29 29° WSW 22:53:03 52° NW 22:59:07 10° NNE
Helios 1B rocket 2.3 22:50:48 10° NNE 22:54:54 83° ESE 22:55:54 51° S
Cosmos-2242 4.3 22:52:46 10° NNW 22:56:22 25° W 22:56:30 25° W
Cosmos 921 Rocket 4.1 22:56:35 25° SE 22:58:13 35° E 23:02:05 10° NE
ATLAS 5 CENTAUR R/B 3.5 22:58:03 13° SE 22:59:22 15° ESE 23:01:41 10° ENE
Cosmos 1437 Rocket 2.7 22:55:32 10° N 22:59:28 83° E 23:00:33 46° SSE
X-37B 0.5 22:59:48 82° NNW 22:59:49 82° NNW 23:03:01 10° ENE
NOSS 2-3 (E) 4.3 22:59:24 31° W 23:00:54 44° NW 23:05:27 10° NNE
NOSS 3-1 (A) 3.2 22:58:37 36° SW 23:00:55 77° NW 23:07:06 10° NNE
CREW DRAGON DEMO-1 DEB 3.6 23:04:20 38° ENE 23:04:20 38° ENE 23:06:02 10° ENE
Cosmos 1092 Rocket 4.2 23:05:18 23° S 23:09:13 68° E 23:15:19 10° NNE
IDEFIX/ARIANE 42P 3.8 23:04:53 10° NNE 23:09:39 34° E 23:13:35 14° SSE
Cosmos 1606 3.2 23:06:48 10° N 23:10:36 58° E 23:12:37 25° SSE
Cosmos 2098 Rocket 3.7 23:08:13 30° SSW 23:11:27 78° W 23:16:39 10° N
Cosmos 468 Rocket 4.4 23:11:47 31° SW 23:13:55 51° WNW 23:19:00 10° N
Meteor 2-2 Rocket 4.4 23:10:08 10° NNW 23:16:05 64° W 23:19:32 26° SSW
Cosmos 1076 Rocket 3.5 23:14:20 33° S 23:16:11 74° E 23:20:25 10° NNE
Lacrosse 4 Rocket 4.4 23:15:57 10° N 23:18:42 17° NE 23:21:26 10° E
USA 281 3.8 23:16:40 10° SE 23:23:05 59° ENE 23:29:32 10° NNW
Meteor 1-28 Rocket 3.8 23:20:58 15° SSE 23:23:53 55° ENE 23:27:36 10° N
Cosmos 2221 2.7 23:21:29 10° NNW 23:25:41 53° W 23:27:18 33° SSW
DELTA 2 R/B (1) 4.0 23:24:15 29° SSW 23:26:29 43° SSE 23:31:43 10° E
Cosmos 1943 3.2 23:23:38 28° SW 23:26:37 71° WNW 23:32:16 10° NNE
BREEZE-M DEB (TANK) 4.4 23:08:24 10° WNW 23:27:25 81° SW 23:31:40 10° SE
Cosmos 2151 3.5 23:25:10 21° SSE 23:27:48 54° E 23:31:55 10° NNE
SJ 16-02 3.3 23:26:42 10° WNW 23:28:33 14° W 23:28:33 14° W
Cosmos 1603 3.9 23:26:37 27° SW 23:29:44 64° WNW 23:35:23 10° NNE
USA 305 4.1 23:30:35 22° S 23:32:18 30° SE 23:36:02 10° ENE
SeaSat 1 2.6 23:29:46 10° NNE 23:34:41 66° ESE 23:37:48 22° SSW
Cosmos 372 Rocket 4.3 23:30:16 10° NNW 23:35:31 70° ENE 23:40:44 10° SSE
CZ-4C R/B 4.1 23:33:33 10° SE 23:36:54 43° ENE 23:40:12 10° N
ADEOS Rocket 3.4 23:32:45 10° S 23:40:19 74° WSW 23:47:18 10° NNW
Landsat 4 3.9 23:37:49 10° N 23:41:32 56° WNW 23:43:15 29° SW
Cosmos 1943 Rocket 3.4 23:38:06 10° NW 23:42:07 21° W 23:43:14 20° WSW
Meteor 1-29 3.7 23:44:10 10° N 23:47:22 38° WNW 23:48:41 27° WSW
Aureole 3 Rocket 3.1 23:43:52 10° NNW 23:47:25 53° W 23:50:36 19° SSW
Cosmos 1933 3.9 23:43:50 10° N 23:47:52 58° E 23:51:53 10° SSE
NOSS 2-2 (D) 3.2 23:49:32 25° SSW 23:51:19 60° ESE 23:54:50 10° NE
Cosmos 1242 Rocket 3.1 23:48:33 10° NNW 23:51:53 37° W 23:53:20 25° SW
SL-16 R/B 4.4 23:50:18 10° WNW 23:53:02 14° NW 23:55:48 10° NNW
IRS-1D 3.6 23:48:02 10° N 23:53:10 64° WNW 23:56:45 19° SSW
USA 306 3.5 23:51:43 21° SSW 23:54:10 45° SE 23:58:13 10° ENE
Cosmos 2292 Rocket 3.1 23:51:51 17° S 23:54:16 61° E 23:57:14 10° NNE
GPS 2-04 Rocket1 4.3 23:56:10 16° S 23:57:06 17° SSE 23:59:39 10° ESE
